[[{"header":{"parameterUnit":"m.s-1","parameterCategory":1,"la1":30.2991,"la2":30.254,"lo1":-89.0895,"lo2":-89.0444,"dy":0.0017,"dx":0.0017,"nx":28,"ny":28,"refTime":"2024-02-22T03:00:00:Z","depth":0,"parameterNumber":2,"parameterNumberName":"U-component_of_WINDS"},"data":[0,0,0,0,0,0,0,0,0,0,0,0,0,0,0,0,0,0,0,0,0,0,0,0,0,0,0,0,0,0,0,0,0,0,0,0,0,0,0,0,0,0,0,0,0,0,0,0,0,0,0,0,0,0,0,0,0,0,-0.4185,-0.4185,0,-0.422,-0.422,-0.4221,-0.4226,-0.4226,-0.4226,-0.4225,-0.4263,-0.4265,-0.4266,0,0,0,0,0,0,0,0,0,0,0,0,0,-0.4126,-0.4127,-0.4185,-0.4185,-0.4186,-0.422,-0.422,-0.4221,-0.4226,-0.4226,-0.4226,-0.4225,-0.4263,-0.4264,-0.4266,0,0,0,0,0,0,0,0,0,0,0,0,0,-0.4155,-0.4127,-0.4185,-0.4193,-0.4194,-0.422,-0.422,-0.4221,-0.4227,-0.4226,-0.4226,-0.4225,-0.4262,-0.4264,-0.4266,-0.4288,0,0,-0.4272,-0.4273,0,0,0,0,0,0,0,0,-0.4153,-0.4157,-0.4191,-0.4192,-0.4193,-0.4218,-0.4213,-0.4243,-0.4227,-0.4214,-0.4225,-0.4225,-0.4249,-0.4252,-0.426,-0.4289,-0.4291,-0.4272,-0.4274,-0.4274,-0.4275,0,0,0,0,0,0,0,-0.4151,-0.4156,-0.4199,-0.4192,-0.4193,-0.4195,-0.4199,-0.4219,-0.4234,-0.4215,-0.4216,-0.422,-0.4249,-0.4258,-0.426,-0.4292,-0.4272,-0.4274,-0.4275,-0.4276,-0.4341,-0.4342,0,0,0,0,0,0,-0.4148,-0.4154,-0.4198,-0.42,-0.4172,-0.4197,-0.4201,-0.4211,-0.4234,-0.4237,-0.422,-0.422,-0.4255,-0.4258,-0.4262,-0.4288,-0.4274,-0.4276,-0.4277,-0.4341,-0.4342,-0.4342,0,0,0,0,0,0,-0.4146,-0.4151,-0.4196,-0.4177,-0.4183,-0.4198,-0.4209,-0.4212,-0.422,-0.4237,-0.424,-0.4225,-0.4254,-0.4259,-0.4281,-0.429,-0.4277,-0.4279,-0.434,-0.4341,-0.4342,-0.4341,0,0,0,0,0,0,-0.4145,-0.4151,-0.4158,-0.4177,-0.4184,-0.4214,-0.421,-0.4213,-0.4223,-0.4223,-0.4243,-0.4246,-0.4254,-0.4278,-0.4283,-0.4292,-0.428,-0.434,-0.4341,-0.4342,-0.434,-0.4342,-0.4343,0,0,0,0,0,-0.4142,-0.4157,-0.4159,-0.4164,-0.4194,-0.4214,-0.4218,-0.4227,-0.4224,-0.4232,-0.4243,-0.4245,-0.4288,-0.428,-0.4286,-0.4296,-0.4339,-0.434,-0.4342,-0.434,-0.4342,-0.4343,0,0,0,0,0,0,-0.4139,-0.416,-0.4162,-0.4183,-0.4197,-0.4215,-0.4226,-0.4229,-0.4245,-0.4244,-0.4255,-0.426,-0.4281,-0.4291,-0.4282,-0.4318,-0.4313,-0.4316,-0.431,-0.4312,-0.4313,-0.431,-0.4282,0,0,0,0,0,-0.4141,-0.4156,-0.4173,-0.419,-0.4197,-0.421,-0.422,-0.4225,-0.4241,-0.4247,-0.426,-0.4275,-0.4292,-0.4303,-0.4319,-0.4343,-0.4347,-0.4352,-0.4354,-0.4355,-0.4356,-0.4369,-0.4372,-0.4346,-0.4346,-0.4346,0,0,-0.4145,-0.4158,-0.4166,-0.419,-0.4201,-0.4217,-0.4215,-0.4231,-0.4243,-0.4249,-0.427,-0.4281,-0.4299,-0.4322,-0.4332,-0.433,-0.4364,-0.4356,-0.4357,-0.4358,-0.4371,-0.4373,-0.4375,-0.4347,-0.4347,-0.4347,0,0,-0.4159,-0.4171,-0.4186,-0.4198,-0.4215,-0.4224,-0.4228,-0.4246,-0.4253,-0.4274,-0.4279,-0.4294,-0.4323,-0.4336,-0.4346,-0.4367,-0.437,-0.4372,-0.4379,-0.4392,-0.4394,-0.4395,-0.4402,-0.4405,-0.4374,-0.4374,-0.4374,0,-0.4162,-0.4184,-0.4194,-0.421,-0.422,-0.4226,-0.4242,-0.4254,-0.4276,-0.4283,-0.4281,-0.4318,-0.4331,-0.4356,-0.4361,-0.437,-0.4375,-0.4369,-0.4392,-0.4394,-0.4396,-0.4403,-0.4406,-0.4374,-0.4374,-0.4374,-0.4374,0,-0.4187,-0.4202,-0.4213,-0.4233,-0.4245,-0.4261,-0.4274,-0.4285,-0.429,-0.43,-0.4322,-0.4338,-0.4358,-0.4365,-0.437,-0.4392,-0.439,-0.439,-0.4385,-0.4398,-0.4405,-0.4408,-0.4375,-0.4375,-0.4375,-0.4374,0,0,-0.4198,-0.4224,-0.4228,-0.4238,-0.4258,-0.4271,-0.4288,-0.4307,-0.4316,-0.4332,-0.4347,-0.4372,-0.4372,-0.4384,-0.4391,-0.4403,-0.4418,-0.4401,-0.4402,-0.4403,-0.4443,-0.4441,-0.4444,-0.442,-0.4421,-0.4421,-0.4441,0,-0.4215,-0.4244,-0.4253,-0.4278,-0.4293,-0.43,-0.4315,-0.4329,-0.4339,-0.4354,-0.4366,-0.4383,-0.4382,-0.4389,-0.4401,-0.4413,-0.4426,-0.4412,-0.4434,-0.4435,-0.4428,-0.4448,-0.4446,-0.4464,-0.4443,-0.4444,-0.4444,0,-0.4237,-0.4252,-0.4278,-0.4297,-0.4303,-0.4316,-0.4335,-0.4349,-0.4367,-0.4373,-0.4387,-0.4393,-0.4412,-0.4408,-0.4434,-0.4425,-0.4435,-0.4443,-0.4444,-0.4445,-0.4439,-0.4449,-0.447,-0.4472,-0.4449,-0.4448,-0.4448,0,-0.4242,-0.4269,-0.4288,-0.4297,-0.4319,-0.4328,-0.4338,-0.4355,-0.4366,-0.4383,-0.439,-0.441,-0.442,-0.4435,-0.4447,-0.4443,-0.4473,-0.4469,-0.4479,-0.4479,-0.4484,-0.4483,-0.4505,-0.4492,-0.4492,-0.4492,-0.4492,0,-0.4258,-0.4274,-0.4291,-0.4302,-0.432,-0.4332,-0.435,-0.4361,-0.4376,-0.439,-0.4398,-0.4412,-0.4427,-0.4443,-0.4453,-0.4474,-0.4479,-0.4485,-0.4487,-0.4484,-0.4483,-0.4489,-0.4488,-0.4493,-0.4493,-0.4492,-0.4492,0,-0.4266,-0.4279,-0.43,-0.432,-0.4325,-0.4337,-0.4355,-0.4367,-0.4378,-0.4396,-0.4401,-0.4418,-0.4437,-0.4451,-0.4477,-0.4483,-0.4505,-0.4508,-0.4499,-0.45,-0.4508,-0.4507,-0.4535,-0.4539,-0.4524,-0.4524,-0.4524,0,-0.4275,-0.4287,-0.4308,-0.4318,-0.4328,-0.4344,-0.4355,-0.4368,-0.438,-0.4401,-0.4411,-0.443,-0.4447,-0.4478,-0.4493,-0.4513,-0.4515,-0.4524,-0.4518,-0.4514,-0.4515,-0.4513,-0.4515,-0.4524,-0.4524,-0.4524,-0.4524,0,-0.429,-0.4296,-0.4311,-0.4329,-0.4342,-0.4357,-0.4372,-0.438,-0.4395,-0.4408,-0.4428,-0.444,-0.4466,-0.4486,-0.4507,-0.4519,-0.4524,-0.4526,-0.4529,-0.4525,-0.4519,-0.4522,-0.45,-0.4525,-0.4525,-0.4525,-0.4525,-0.4525,-0.4298,-0.4309,-0.4326,-0.4343,-0.4356,-0.437,-0.4382,-0.4394,-0.441,-0.4432,-0.4439,-0.4459,-0.4477,-0.4506,-0.4518,-0.4535,-0.4535,-0.4539,-0.454,-0.4541,-0.4541,-0.4517,-0.4539,-0.4539,-0.4539,-0.4539,-0.4539,0,-0.4313,-0.4324,-0.434,-0.436,-0.4374,-0.4378,-0.4395,-0.4406,-0.4424,-0.444,-0.4456,-0.4479,-0.4498,-0.4516,-0.4536,-0.4546,-0.4549,-0.4551,-0.455,-0.4553,-0.454,-0.4535,-0.4548,-0.4548,-0.4548,-0.4548,-0.4548,-0.4548,-0.4322,-0.434,-0.4348,-0.4374,-0.4385,-0.4404,-0.4414,-0.4427,-0.444,-0.4465,-0.4481,-0.4492,-0.4509,-0.4531,-0.4549,-0.4554,-0.4561,-0.4562,-0.4567,-0.4555,-0.4554,-0.4552,-0.4548,-0.4563,-0.4564,-0.4578,-0.4578,-0.4578]},{"header":{"parameterUnit":"m.s-1","parameterCategory":1,"la1":30.2991,"la2":30.254,"lo1":-89.0895,"lo2":-89.0444,"dy":0.0017,"dx":0.0017,"nx":28,"ny":28,"refTime":"2024-02-22T03:00:00:Z","depth":0,"parameterNumber":3,"parameterNumberName":"V-component_of_WINDS"},"data":[0,0,0,0,0,0,0,0,0,0,0,0,0,0,0,0,0,0,0,0,0,0,0,0,0,0,0,0,0,0,0,0,0,0,0,0,0,0,0,0,0,0,0,0,0,0,0,0,0,0,0,0,0,0,0,0,0,0,4.2044,4.2045,0,4.2138,4.2139,4.214,4.22,4.22,4.2201,4.2201,4.2292,4.2294,4.2296,0,0,0,0,0,0,0,0,0,0,0,0,0,4.1915,4.1917,4.2044,4.2045,4.2047,4.2138,4.2139,4.214,4.22,4.22,4.2201,4.2201,4.2291,4.2294,4.2296,0,0,0,0,0,0,0,0,0,0,0,0,0,4.1986,4.1918,4.2044,4.2088,4.2092,4.2137,4.2139,4.2141,4.22,4.22,4.2201,4.2202,4.2291,4.2294,4.2297,4.2304,0,0,4.2306,4.2307,0,0,0,0,0,0,0,0,4.1982,4.1991,4.208,4.2085,4.209,4.2158,4.2127,4.2195,4.22,4.2159,4.2201,4.2202,4.2247,4.2253,4.227,4.2308,4.2312,4.2306,4.2308,4.231,4.231,0,0,0,0,0,0,0,4.1977,4.1987,4.2081,4.2081,4.2087,4.2102,4.2112,4.214,4.2198,4.2163,4.2167,4.2178,4.2249,4.2266,4.2272,4.2314,4.2306,4.2309,4.2311,4.2312,4.2367,4.2366,0,0,0,0,0,0,4.1966,4.1982,4.2078,4.2084,4.2036,4.2103,4.2115,4.2136,4.2198,4.2208,4.2177,4.218,4.2261,4.2268,4.2275,4.2291,4.231,4.2312,4.2314,4.2367,4.2367,4.2366,0,0,0,0,0,0,4.1962,4.1973,4.2074,4.2035,4.2049,4.2105,4.2127,4.2137,4.2154,4.2209,4.222,4.2184,4.2262,4.2271,4.2298,4.2295,4.2314,4.2317,4.2368,4.2367,4.2367,4.232,0,0,0,0,0,0,4.1959,4.1972,4.1976,4.2034,4.205,4.2096,4.2127,4.2138,4.216,4.2165,4.2218,4.2228,4.2263,4.2293,4.2301,4.2299,4.2319,4.2368,4.2367,4.2367,4.2322,4.2318,4.2314,0,0,0,0,0,4.1954,4.1957,4.1976,4.1987,4.2057,4.2095,4.2104,4.2146,4.2159,4.2164,4.22,4.2226,4.2294,4.2295,4.2304,4.2304,4.2369,4.2368,4.2367,4.2324,4.2319,4.2314,0,0,0,0,0,0,4.1895,4.1966,4.1987,4.201,4.2046,4.2105,4.2112,4.2139,4.2171,4.2174,4.2223,4.2235,4.2257,4.2283,4.2283,4.2316,4.2334,4.2335,4.2298,4.2294,4.229,4.2284,4.2322,0,0,0,0,0,4.1885,4.1911,4.1971,4.1986,4.2003,4.2054,4.2073,4.2102,4.2141,4.2156,4.2194,4.223,4.226,4.2278,4.2308,4.2326,4.234,4.2331,4.2327,4.2323,4.2324,4.2338,4.2335,4.2363,4.2363,4.2363,0,0,4.1863,4.1906,4.1919,4.1975,4.2007,4.2033,4.2067,4.2092,4.2112,4.216,4.2189,4.2217,4.2261,4.2284,4.2296,4.2306,4.2319,4.2322,4.2319,4.2321,4.2336,4.2334,4.2331,4.2363,4.2363,4.2363,0,0,4.1839,4.1873,4.189,4.1922,4.1971,4.2006,4.201,4.2066,4.2087,4.2117,4.2155,4.2178,4.2228,4.2258,4.228,4.227,4.2296,4.2278,4.2258,4.2271,4.2269,4.2267,4.2266,4.2264,4.2279,4.2278,4.2278,0,4.1806,4.1848,4.1895,4.192,4.1944,4.1991,4.2009,4.2037,4.2092,4.2107,4.2119,4.2185,4.2217,4.2249,4.2247,4.2262,4.2269,4.2273,4.2266,4.2265,4.2264,4.2263,4.2262,4.2276,4.2276,4.2277,4.2277,0,4.1807,4.1835,4.1843,4.1899,4.1924,4.1944,4.1994,4.2013,4.2041,4.2074,4.2105,4.2146,4.2187,4.2196,4.2222,4.2233,4.2238,4.2257,4.2276,4.2258,4.2258,4.2258,4.2273,4.2274,4.2274,4.2275,0,0,4.1746,4.183,4.1832,4.1859,4.1917,4.194,4.1963,4.2006,4.2022,4.2059,4.2081,4.2123,4.2142,4.2167,4.2197,4.2208,4.2201,4.2226,4.2228,4.2221,4.2217,4.2203,4.2202,4.2218,4.2218,4.2218,4.2214,0,4.1731,4.1778,4.1822,4.1853,4.1881,4.1927,4.1948,4.1986,4.2018,4.2046,4.2081,4.2111,4.2133,4.2149,4.2162,4.2198,4.22,4.2199,4.2239,4.224,4.2228,4.2202,4.2187,4.2181,4.2214,4.2214,4.2214,0,4.172,4.1759,4.1793,4.1852,4.1865,4.1883,4.1927,4.1953,4.1997,4.202,4.2049,4.2082,4.2109,4.2126,4.2164,4.2163,4.2182,4.2202,4.2203,4.2209,4.2226,4.2208,4.2179,4.2179,4.2214,4.2214,4.2214,0,4.1676,4.1735,4.1764,4.1786,4.1854,4.1866,4.1895,4.194,4.1964,4.2001,4.2017,4.2056,4.2078,4.2107,4.215,4.2157,4.2185,4.2204,4.2205,4.2204,4.2209,4.2208,4.2184,4.2219,4.2219,4.2219,4.2219,0,4.1655,4.1675,4.1746,4.1763,4.1787,4.1837,4.1859,4.1892,4.1932,4.1957,4.1998,4.202,4.2075,4.2103,4.2136,4.2165,4.2173,4.2193,4.2202,4.219,4.2188,4.2203,4.2205,4.2218,4.2218,4.2219,4.2219,0,4.1609,4.1657,4.1692,4.1756,4.1772,4.1787,4.1841,4.186,4.1895,4.1926,4.1937,4.1991,4.2028,4.2073,4.2123,4.2146,4.2171,4.2183,4.2156,4.2162,4.2161,4.2161,4.2147,4.2148,4.218,4.218,4.2179,0,4.1594,4.1611,4.1677,4.1698,4.1726,4.1758,4.1784,4.1834,4.1858,4.1912,4.1925,4.1965,4.1999,4.2055,4.2099,4.2138,4.2153,4.2145,4.2159,4.2147,4.2155,4.2154,4.2156,4.2142,4.2141,4.2141,4.214,0,4.1562,4.1586,4.1621,4.1666,4.1696,4.1732,4.1771,4.1785,4.1843,4.1868,4.1907,4.1934,4.1988,4.2027,4.2072,4.2101,4.2131,4.2136,4.2138,4.2127,4.2112,4.2122,4.2149,4.2136,4.2136,4.2137,4.2137,4.2137,4.1532,4.155,4.1601,4.164,4.1675,4.171,4.1732,4.1772,4.1806,4.1854,4.1882,4.192,4.1966,4.203,4.2059,4.2089,4.21,4.2103,4.2104,4.2104,4.2102,4.2106,4.2097,4.2097,4.2098,4.2098,4.2098,0,4.1504,4.154,4.1575,4.163,4.166,4.1687,4.1732,4.1756,4.179,4.1831,4.1866,4.1911,4.195,4.1998,4.2041,4.2056,4.2071,4.2066,4.2066,4.2072,4.2089,4.2083,4.2054,4.2054,4.2054,4.2054,4.2054,4.2054,4.1494,4.1527,4.1557,4.1608,4.1643,4.1683,4.1706,4.1739,4.1773,4.1823,4.1857,4.1889,4.1933,4.198,4.2017,4.203,4.2044,4.2035,4.2052,4.2067,4.2071,4.2074,4.207,4.2038,4.2038,4.2034,4.2034,4.2034]}]]